Change the Weather History Date:

Wednesday, March 19, 2014

  Actual Average Record
Temperature  
Mean Temperature 33 °F 33 °F  
Max Temperature 48 °F 44 °F 75 °F (1911)
Min Temperature 18 °F 22 °F -7 °F (1965)
Degree Days  
Heating Degree Days 32 32  
Month to date heating degree days 724 681  
Since 1 July heating degree days 7264 6656  
Cooling Degree Days 0 0  
Month to date cooling degree days 0 0  
Year to date cooling degree days 0 0  
Moisture  
Dew Point 24 °F    
Average Humidity 65    
Maximum Humidity 92    
Minimum Humidity 37    
Precipitation  
Precipitation T in 0.03 in 1.12 in (1982)
Month to date precipitation 0.33 0.49  
Year to date precipitation 0.94 1.22  
Snow  
Snow T in - - ()
Month to date snowfall 5.0  
Since 1 July snowfall 36.4  
Snow Depth 0.00 in    
Sea Level Pressure  
Sea Level Pressure 29.98 in    
Wind  
Wind Speed 6 mph (NW)    
Max Wind Speed 21 mph    
Max Gust Speed 27 mph    
Visibility 10 miles    
Events Snow    
T = Trace of Precipitation, MM = Missing Value Source: NWS Daily Summary

Daily Weather History Graph

Daily Weather History Graph

Search for Another Location

Airport or City:

Trip Planner

Search our weather history database for the weather conditions in past years. The results will help you decide how hot, cold, wet, or windy it might be!

Date:

Astronomy

Mar. 19, 2014 Rise Set
Actual Time 7:46 AM CDT 7:52 PM CDT
Civil Twilight 7:16 AM CDT 8:22 PM CDT
Nautical Twilight 6:42 AM CDT 8:57 PM CDT
Astronomical Twilight 6:06 AM CDT 9:32 PM CDT
Moon 11:24 PM CDT (3/19) 9:04 AM CDT (3/19)
Length of Visible Light 13h 05m
Length of Day
12h 06m
Waning Gibbous, 91% of the Moon is Illuminated
Mar 19
Waning Gibbous
Mar 23
Last Quarter
Mar 30
New
Apr 7
First Quarter
Apr 15
Full

Hourly Weather History & Observations

Time (CDT) Temp. Windchill Dew Point Humidity Pressure Visibility Wind Dir Wind Speed Gust Speed Precip Events Conditions
12:52 AM 25.0 °F 19.3 °F 21.9 °F 88% 30.01 in 10.0 mi NNW 4.6 mph - N/A   Clear
1:52 AM 27.0 °F 18.0 °F 23.0 °F 85% 30.01 in 10.0 mi NW 9.2 mph - N/A   Clear
2:52 AM 24.1 °F 17.0 °F 21.0 °F 88% 30.02 in 10.0 mi NW 5.8 mph - N/A   Clear
3:52 AM 25.0 °F 16.3 °F 21.9 °F 88% 30.01 in 10.0 mi NW 8.1 mph - N/A   Clear
4:52 AM 21.9 °F 15.7 °F 19.0 °F 89% 30.01 in 10.0 mi ENE 4.6 mph - N/A   Clear
5:52 AM 19.0 °F - 17.1 °F 92% 30.01 in 10.0 mi Calm Calm - N/A   Clear
6:52 AM 19.9 °F 14.9 °F 18.0 °F 92% 30.01 in 10.0 mi NNE 3.5 mph - N/A   Clear
7:52 AM 19.9 °F - 18.0 °F 92% 30.02 in 10.0 mi Calm Calm - N/A   Clear
8:52 AM 25.0 °F 19.3 °F 23.0 °F 92% 30.01 in 10.0 mi South 4.6 mph - N/A   Scattered Clouds
9:52 AM 28.0 °F - 25.0 °F 88% 30.01 in 10.0 mi Calm Calm - N/A   Overcast
10:09 AM 28.9 °F 23.9 °F 26.1 °F 89% 29.94 in 1.8 mi SSE 4.6 mph - 0.00 in Snow Light Snow
10:19 AM 30.0 °F 26.5 °F 27.0 °F 88% 29.94 in 3.0 mi SSE 3.5 mph - 0.00 in Snow Light Snow
10:52 AM 34.0 °F 28.8 °F 30.0 °F 85% 30.00 in 10.0 mi West 5.8 mph - 0.00 in   Mostly Cloudy
11:52 AM 39.0 °F 31.8 °F 32.0 °F 76% 29.99 in 10.0 mi NW 11.5 mph - N/A   Scattered Clouds
12:06 PM 39.9 °F 32.5 °F 32.0 °F 73% 29.93 in 10.0 mi WNW 12.7 mph - N/A   Mostly Cloudy
12:39 PM 42.1 °F 33.6 °F 30.0 °F 62% 29.93 in 10.0 mi NNW 18.4 mph - N/A   Scattered Clouds
12:52 PM 41.0 °F 33.1 °F 28.9 °F 62% 29.99 in 10.0 mi NNW 15.0 mph - N/A   Mostly Cloudy
1:52 PM 44.1 °F 36.8 °F 25.0 °F 47% 29.99 in 10.0 mi NNW 16.1 mph - N/A   Mostly Cloudy
2:52 PM 45.0 °F 38.2 °F 24.1 °F 44% 29.98 in 10.0 mi NNW 15.0 mph - N/A   Partly Cloudy
3:52 PM 46.0 °F 40.2 °F 21.9 °F 39% 29.97 in 10.0 mi NNW 12.7 mph - N/A   Mostly Cloudy
4:52 PM 44.1 °F 38.6 °F 24.1 °F 45% 29.98 in 10.0 mi NNW 10.4 mph - N/A   Overcast
5:52 PM 46.0 °F 40.6 °F 21.9 °F 39% 29.96 in 10.0 mi WNW 11.5 mph - N/A   Partly Cloudy
6:52 PM 44.1 °F 40.1 °F 21.9 °F 42% 29.97 in 10.0 mi WNW 6.9 mph - N/A   Partly Cloudy
7:52 PM 35.1 °F - 21.0 °F 57% 29.98 in 10.0 mi Calm Calm - N/A   Clear
8:52 PM 28.9 °F - 21.0 °F 72% 29.98 in 10.0 mi Calm Calm - N/A   Clear
9:52 PM 28.9 °F 23.9 °F 21.0 °F 72% 29.97 in 10.0 mi East 4.6 mph - N/A   Clear
10:52 PM 28.0 °F - 21.9 °F 78% 29.97 in 10.0 mi Calm Calm - N/A   Clear
11:52 PM 30.0 °F 26.5 °F 23.0 °F 75% 29.95 in 10.0 mi SSE 3.5 mph - N/A   Clear